STARLINK-1624, 46130

Orbit data source: Space-Track

STARLINK-1624, 46130 is a payload satellite owned by SpaceX/Seattle (US) in LEO that was launched on Tue, 18 Aug 2020 UTC via an FALCON 9 launch vehicle from the Air Force Eastern Test Range (AFETR). Payload-class satellites include a variety of spacecraft equipped with specific instruments for various scientific and technological missions. These include communications satellites like Starlink; space stations such as the ISS; scientific satellites like the Hubble; Earth observation satellites from companies like Planet Labs, Umbra, and HawkEye 360; GPS; miniature CubeSats for education and research; and military/defense satellites.

Loading next visibility...
Identifier
46130, 2020-057P
Orbit
LEO
Country
Flag of USUS
Related business
Manufacturer
SpaceX/Seattle
Mission
Partially operational Commercial Communications
Bus & Motor
STARLINK, Unknown motor
Mass
260 kg wet, ~248 kg dry
Launch date (UTC)
2020-08-18 (6 years ago)
Launch vehicle
FALCON 9
Launch site
Air Force Eastern Test Range (AFETR)
Object type
Payload
Rocket body
Debris
Shape & HBR
Box + 1 Pan, 10.1 m
Radar Cross Section
13.562 m², Large (>1 m²)

Expand to show TLE details & history
Last TLE update: 2 hours ago

TLE from 2 hours ago
0 STARLINK-1624
1 46130U 20057P   26123.25003471  .00384112  66361-4  12230-2 0  9999
2 46130  53.0337 319.4907 0006526 227.2381  34.6108 15.90602602  5945
Epoch: 2026-05-03T06:00Z
TLE epoch observation values (Epoch: 2026-05-03T06:00:02.998Z)
Latitude
-52.43959°
Longitude
-94.97596°
Altitude
315.174 km
Speed
7.721 km/s
True Right ascension
14h 24m 46s
True Declination
-52° 15' 44"
Sunlit
Object was in full shadow at epoch
Visualization orbit readout
Latitude
Unknown
Longitude
Unknown
Altitude
Unknown
Speed
Unknown
Apparent Right ascension
Unknown
Apparent Declination
Unknown
Sunlit
N/A
Visualization observer readout
Local Sidereal Time
15:48:09
Azimuth
Unknown
Elevation
Unknown
Doppler factor
Unknown
Orbital elements
Apogee altitude
305.238 km
Perigee altitude
296.521 km
Semi-major axis
6,679.016 km
Eccentricity
0.00065
Inclination
53.0337°
RAAN
319.4907°
Arg. of periapsis
227.2381°
True anomaly
34.6533°
Mean anomaly
34.6108°
Eccentric anomaly
34.63205°
Mean motion
3.97626 °/min
Orbital period
90.54 mins
BSTAR
0.001223
Loading maneuver chart data...
Computing Atmospheric mass density...
Loading historical data...
Loading historical data...
Loading historical data...
Loading historical data...
Loading historical data...
Loading historical data...
Loading historical data...

Documentation

Showing up to 5 results
|